Location: Altleiningen
(49.5078°N, 8.0741°E)
Time: 02:36:16
(UTC+00:00)

Cosmos 864 Rocket - Pass Details

Date: 03 March 2021
Orbit: 954 x 991 km, 82.9° (Epoch: 16 April)

Event Time Altitude Azimuth Distance (km) Brightness Sun altitude
Rises 19:05:17 0° 176° (S) 3,624 7.3 -18.8°
Reaches altitude 10° 19:07:47 10° 173° (S) 2,686 6.6 -19.2°
Maximum altitude 19:13:50 63° 94° (E) 1,071 4.4 -20.1°
Drops below altitude 10° 19:19:59 10° 15° (NNE) 2,727 6.8 -21.1°
Sets 19:22:32 0° 12° (NNE) 3,684 7.6 -21.5°
